| time (UTC) | temp C | wind direction | speed KPH | gust KPH | rain 1hr cm | rain 24hr cm | rain mn cm | humidity % | barometer mb |
| 20260504151004 | 19 | 357 | 14.5 | 16.1 | 0.00 | 0.00 | 0.00 | 56 | 1019.2 |
| 20260504150504 | 20 | 327 | 12.9 | 14.5 | 0.00 | 0.00 | 0.00 | 54 | 1019.2 |
| 20260504150218 | 20 | 352 | 11.3 | 14.5 | 0.00 | 0.00 | 0.00 | 54 | 1019.0 |
| 20260504141217 | 20 | 36 | 16.1 | 20.9 | 0.00 | 0.00 | 0.00 | 46 | 1019.4 |
| 20260504140503 | 20 | 13 | 14.5 | 17.7 | 0.00 | 0.00 | 0.00 | 50 | 1019.7 |
| 20260504140213 | 20 | 17 | 12.9 | 17.7 | 0.00 | 0.00 | 0.00 | 50 | 1019.7 |
| 20260504130716 | 19 | 58 | 16.1 | 20.9 | 0.00 | 0.00 | 0.00 | 52 | 1020.1 |
| 20260504110503 | 19 | 70 | 19.3 | 24.1 | 0.00 | 0.00 | 0.00 | 51 | 1020.9 |
| 20260504100503 | 19 | 54 | 16.1 | 17.7 | 0.00 | 0.00 | 0.00 | 52 | 1021.1 |
| 20260504082004 | 18 | 72 | 16.1 | 19.3 | 0.00 | 0.00 | 0.00 | 54 | 1021.2 |
| 20260504081713 | 18 | 60 | 16.1 | 19.3 | 0.00 | 0.00 | 0.00 | 53 | 1021.2 |
| 20260504081004 | 18 | 28 | 9.7 | 14.5 | 0.00 | 0.00 | 0.00 | 51 | 1021.2 |
| 20260504080504 | 18 | 37 | 9.7 | 12.9 | 0.00 | 0.00 | 0.00 | 51 | 1021.3 |
| 20260504060218 | 16 | 22 | 3.2 | 4.8 | 0.00 | 0.00 | 0.00 | 54 | 1021.2 |
| 20260504050503 | 15 | 66 | 6.4 | 9.7 | 0.00 | 0.00 | 0.00 | 61 | 1021.3 |
| 20260504050004 | 15 | 80 | 6.4 | 11.3 | 0.00 | 0.00 | 0.00 | 61 | 1021.1 |
| 20260504045504 | 15 | 70 | 6.4 | 11.3 | 0.00 | 0.00 | 0.00 | 60 | 1021.3 |
| 20260504045003 | 14 | 101 | 4.8 | 9.7 | 0.00 | 0.00 | 0.00 | 60 | 1021.2 |
| 20260504044504 | 14 | 200 | 4.8 | 9.7 | 0.00 | 0.00 | 0.00 | 60 | 1021.3 |
| 20260504044003 | 14 | 184 | 6.4 | 14.5 | 0.00 | 0.00 | 0.00 | 61 | 1021.0 |
| 20260504043503 | 14 | 199 | 8.0 | 14.5 | 0.00 | 0.00 | 0.00 | 61 | 1021.0 |
| 20260504043004 | 14 | 219 | 6.4 | 14.5 | 0.00 | 0.00 | 0.00 | 63 | 1021.0 |
| 20260504042503 | 14 | 250 | 4.8 | 9.7 | 0.00 | 0.00 | 0.00 | 63 | 1021.0 |
| 20260504042003 | 13 | 293 | 1.6 | 4.8 | 0.00 | 0.00 | 0.00 | 63 | 1020.8 |
| 20260504041715 | 13 | 330 | 1.6 | 3.2 | 0.00 | 0.00 | 0.00 | 63 | 1021.0 |
| 20260504041003 | 13 | 352 | 3.2 | 4.8 | 0.00 | 0.00 | 0.00 | 63 | 1020.7 |
| 20260504040504 | 13 | 12 | 3.2 | 6.4 | 0.00 | 0.00 | 0.00 | 63 | 1020.7 |
| 20260504040214 | 13 | 41 | 3.2 | 6.4 | 0.00 | 0.00 | 0.00 | 63 | 1020.7 |
| 20260504035503 | 13 | 33 | 3.2 | 6.4 | 0.00 | 0.00 | 0.00 | 63 | 1020.7 |
| 20260504035003 | 13 | 317 | 1.6 | 3.2 | 0.00 | 0.00 | 0.00 | 63 | 1020.5 |
| 20260504034504 | 13 | 301 | 1.6 | 3.2 | 0.00 | 0.00 | 0.00 | 62 | 1020.5 |
| 20260504034003 | 13 | 305 | 3.2 | 6.4 | 0.00 | 0.00 | 0.00 | 62 | 1020.7 |
| 20260504033504 | 13 | 290 | 4.8 | 9.7 | 0.00 | 0.00 | 0.00 | 62 | 1020.7 |
| 20260504033003 | 14 | 304 | 4.8 | 9.7 | 0.00 | 0.00 | 0.00 | 62 | 1020.6 |
| 20260504032504 | 14 | 3 | 3.2 | 3.2 | 0.00 | 0.00 | 0.00 | 62 | 1020.7 |
| 20260504032003 | 14 | 33 | 3.2 | 3.2 | 0.00 | 0.00 | 0.00 | 62 | 1020.6 |
| 20260504031503 | 14 | 45 | 3.2 | 4.8 | 0.00 | 0.00 | 0.00 | 62 | 1020.4 |
| 20260504031004 | 13 | 50 | 4.8 | 6.4 | 0.00 | 0.00 | 0.00 | 62 | 1020.5 |
| 20260504030504 | 13 | 45 | 3.2 | 6.4 | 0.00 | 0.00 | 0.00 | 62 | 1020.5 |
| 20260504030003 | 13 | 266 | 1.6 | 3.2 | 0.00 | 0.00 | 0.00 | 62 | 1020.6 |
| 20260504025503 | 14 | 229 | 4.8 | 8.0 | 0.00 | 0.00 | 0.00 | 62 | 1020.5 |
| 20260504025005 | 14 | 233 | 8.0 | 9.7 | 0.00 | 0.00 | 0.00 | 62 | 1020.6 |
| 20260504024503 | 14 | 235 | 6.4 | 9.7 | 0.00 | 0.00 | 0.00 | 62 | 1020.7 |
| 20260504024003 | 14 | 210 | 3.2 | 8.0 | 0.00 | 0.00 | 0.00 | 62 | 1020.5 |
| 20260504023503 | 14 | 215 | 4.8 | 6.4 | 0.00 | 0.00 | 0.00 | 62 | 1020.7 |
| 20260504023003 | 14 | 196 | 4.8 | 6.4 | 0.00 | 0.00 | 0.00 | 63 | 1020.7 |
| 20260504022716 | 14 | 211 | 4.8 | 6.4 | 0.00 | 0.00 | 0.00 | 63 | 1020.7 |
| 20260504022004 | 13 | 179 | 6.4 | 9.7 | 0.00 | 0.00 | 0.00 | 63 | 1021.0 |
| 20260504021504 | 13 | 167 | 8.0 | 9.7 | 0.00 | 0.00 | 0.00 | 63 | 1020.9 |
| 20260504021215 | 14 | 177 | 8.0 | 9.7 | 0.00 | 0.00 | 0.00 | 63 | 1020.9 |
| 20260504020503 | 14 | 183 | 8.0 | 9.7 | 0.00 | 0.00 | 0.00 | 62 | 1020.5 |
| 20260504020003 | 14 | 190 | 6.4 | 9.7 | 0.00 | 0.00 | 0.00 | 62 | 1020.7 |
| 20260504015714 | 14 | 200 | 4.8 | 8.0 | 0.00 | 0.00 | 0.00 | 62 | 1020.7 |
| 20260504015003 | 14 | 247 | 4.8 | 8.0 | 0.00 | 0.00 | 0.00 | 62 | 1020.9 |
| 20260504014503 | 14 | 249 | 6.4 | 8.0 | 0.00 | 0.00 | 0.00 | 62 | 1020.8 |
| 20260504014004 | 14 | 201 | 4.8 | 6.4 | 0.00 | 0.00 | 0.00 | 63 | 1020.9 |
| 20260504013503 | 14 | 134 | 6.4 | 8.0 | 0.00 | 0.00 | 0.00 | 63 | 1020.8 |
| 20260504013003 | 14 | 109 | 6.4 | 8.0 | 0.00 | 0.00 | 0.00 | 62 | 1020.8 |
| 20260504012716 | 14 | 92 | 4.8 | 8.0 | 0.00 | 0.00 | 0.00 | 62 | 1020.8 |
| 20260504012003 | 14 | 242 | 3.2 | 6.4 | 0.00 | 0.00 | 0.00 | 62 | 1020.7 |
| 20260504011504 | 14 | 300 | 1.6 | 4.8 | 0.00 | 0.00 | 0.00 | 62 | 1020.8 |
| 20260504011003 | 14 | 210 | 3.2 | 8.0 | 0.00 | 0.00 | 0.00 | 62 | 1020.9 |
| 20260504010503 | 15 | 170 | 8.0 | 12.9 | 0.00 | 0.00 | 0.00 | 62 | 1020.7 |
| 20260504010004 | 15 | 187 | 8.0 | 12.9 | 0.00 | 0.00 | 0.00 | 62 | 1020.8 |
| 20260504005503 | 15 | 232 | 6.4 | 9.7 | 0.00 | 0.00 | 0.00 | 62 | 1020.7 |
| 20260504005003 | 15 | 293 | 4.8 | 6.4 | 0.00 | 0.00 | 0.00 | 63 | 1020.8 |
| 20260504004504 | 14 | 276 | 4.8 | 6.4 | 0.00 | 0.00 | 0.00 | 63 | 1020.8 |
| 20260504004213 | 14 | 276 | 3.2 | 6.4 | 0.00 | 0.00 | 0.00 | 63 | 1020.7 |
| 20260504003503 | 14 | 250 | 4.8 | 6.4 | 0.00 | 0.00 | 0.00 | 63 | 1020.6 |
| 20260504003003 | 14 | 226 | 6.4 | 9.7 | 0.00 | 0.00 | 0.00 | 63 | 1020.9 |
| 20260504002504 | 14 | 214 | 6.4 | 9.7 | 0.00 | 0.00 | 0.00 | 63 | 1020.8 |
| 20260504002003 | 14 | 217 | 6.4 | 8.0 | 0.00 | 0.00 | 0.00 | 63 | 1021.1 |
| 20260504001503 | 15 | 246 | 4.8 | 8.0 | 0.00 | 0.00 | 0.00 | 63 | 1021.0 |
| 20260504001004 | 15 | 290 | 4.8 | 8.0 | 0.00 | 0.00 | 0.00 | 63 | 1020.9 |
| 20260504000504 | 15 | 291 | 4.8 | 6.4 | 0.00 | 0.00 | 0.00 | 63 | 1021.1 |
| 20260504000003 | 15 | 246 | 4.8 | 6.4 | 0.00 | 0.00 | 0.00 | 63 | 1021.0 |
| 20260503235715 | 15 | 245 | 4.8 | 6.4 | 0.00 | 0.00 | 0.00 | 63 | 1021.0 |
| 20260503235003 | 15 | 225 | 6.4 | 8.0 | 0.00 | 0.00 | 0.00 | 63 | 1021.1 |
| 20260503234503 | 15 | 180 | 6.4 | 9.7 | 0.00 | 0.00 | 0.00 | 63 | 1021.2 |
| 20260503234003 | 15 | 153 | 6.4 | 9.7 | 0.00 | 0.00 | 0.00 | 63 | 1021.2 |
| 20260503233504 | 15 | 180 | 6.4 | 12.9 | 0.00 | 0.00 | 0.00 | 63 | 1021.3 |
| 20260503233004 | 15 | 206 | 8.0 | 12.9 | 0.00 | 0.00 | 0.00 | 62 | 1021.3 |
| 20260503232504 | 15 | 200 | 9.7 | 12.9 | 0.00 | 0.00 | 0.00 | 62 | 1021.3 |
| 20260503232003 | 15 | 194 | 9.7 | 12.9 | 0.00 | 0.00 | 0.00 | 62 | 1021.3 |
| 20260503231503 | 15 | 210 | 8.0 | 12.9 | 0.00 | 0.00 | 0.00 | 62 | 1021.3 |
| 20260503231217 | 15 | 224 | 8.0 | 12.9 | 0.00 | 0.00 | 0.00 | 61 | 1021.5 |
| 20260503230503 | 15 | 234 | 4.8 | 6.4 | 0.00 | 0.00 | 0.00 | 60 | 1021.4 |
| 20260503230004 | 15 | 258 | 1.6 | 3.2 | 0.00 | 0.00 | 0.00 | 59 | 1021.3 |
| 20260503225503 | 15 | 258 | 3.2 | 6.4 | 0.00 | 0.00 | 0.00 | 58 | 1021.3 |
| 20260503225003 | 15 | 243 | 4.8 | 8.0 | 0.00 | 0.00 | 0.00 | 58 | 1021.5 |
| 20260503224504 | 15 | 219 | 6.4 | 8.0 | 0.00 | 0.00 | 0.00 | 57 | 1021.5 |
| 20260503224003 | 15 | 211 | 6.4 | 8.0 | 0.00 | 0.00 | 0.00 | 56 | 1021.4 |
| 20260503223504 | 15 | 223 | 4.8 | 6.4 | 0.00 | 0.00 | 0.00 | 55 | 1021.4 |
| 20260503223003 | 15 | 222 | 4.8 | 6.4 | 0.00 | 0.00 | 0.00 | 55 | 1021.4 |
| 20260503222503 | 15 | 235 | 4.8 | 8.0 | 0.00 | 0.00 | 0.00 | 55 | 1021.7 |
| 20260503222003 | 15 | 244 | 4.8 | 8.0 | 0.00 | 0.00 | 0.00 | 57 | 1021.8 |
| 20260503221504 | 15 | 215 | 4.8 | 6.4 | 0.00 | 0.00 | 0.00 | 59 | 1021.8 |
| 20260503221003 | 15 | 184 | 4.8 | 6.4 | 0.00 | 0.00 | 0.00 | 59 | 1021.8 |
| 20260503220504 | 15 | 188 | 4.8 | 6.4 | 0.00 | 0.00 | 0.00 | 58 | 1021.6 |
| 20260503220004 | 15 | 142 | 6.4 | 6.4 | 0.00 | 0.00 | 0.00 | 58 | 1021.8 |
| 20260503215716 | 15 | 159 | 6.4 | 9.7 | 0.00 | 0.00 | 0.00 | 57 | 1022.0 |
| 20260503215004 | 15 | 188 | 8.0 | 9.7 | 0.00 | 0.00 | 0.00 | 57 | 1021.6 |
| 20260503214717 | 15 | 189 | 6.4 | 9.7 | 0.00 | 0.00 | 0.00 | 57 | 1021.7 |
| 20260503214003 | 15 | 250 | 6.4 | 9.7 | 0.00 | 0.00 | 0.00 | 57 | 1021.7 |
| 20260503213504 | 15 | 211 | 6.4 | 9.7 | 0.00 | 0.00 | 0.00 | 56 | 1021.6 |
| 20260503213004 | 15 | 215 | 8.0 | 12.9 | 0.00 | 0.00 | 0.00 | 56 | 1021.6 |
| 20260503212504 | 15 | 215 | 8.0 | 12.9 | 0.00 | 0.00 | 0.00 | 55 | 1021.5 |
| 20260503212004 | 15 | 199 | 9.7 | 12.9 | 0.00 | 0.00 | 0.00 | 55 | 1021.5 |
| 20260503211503 | 15 | 225 | 9.7 | 12.9 | 0.00 | 0.00 | 0.00 | 54 | 1021.6 |
| 20260503211003 | 15 | 267 | 8.0 | 9.7 | 0.00 | 0.00 | 0.00 | 53 | 1021.7 |
| 20260503210716 | 15 | 257 | 8.0 | 9.7 | 0.00 | 0.00 | 0.00 | 52 | 1021.5 |
| 20260503210005 | 15 | 203 | 8.0 | 9.7 | 0.00 | 0.00 | 0.00 | 51 | 1021.9 |
| 20260503205503 | 15 | 216 | 6.4 | 8.0 | 0.00 | 0.00 | 0.00 | 51 | 1021.7 |
| 20260503205003 | 15 | 249 | 4.8 | 8.0 | 0.00 | 0.00 | 0.00 | 51 | 1021.8 |
| 20260503204504 | 15 | 231 | 4.8 | 6.4 | 0.00 | 0.00 | 0.00 | 51 | 1021.8 |
| 20260503204216 | 15 | 236 | 6.4 | 9.7 | 0.00 | 0.00 | 0.00 | 51 | 1021.7 |
| 20260503203504 | 15 | 196 | 9.7 | 12.9 | 0.00 | 0.00 | 0.00 | 51 | 1021.7 |
| 20260503203004 | 15 | 177 | 11.3 | 16.1 | 0.00 | 0.00 | 0.00 | 52 | 1021.6 |
| 20260503202714 | 15 | 185 | 11.3 | 16.1 | 0.00 | 0.00 | 0.00 | 52 | 1021.7 |
| 20260503202003 | 15 | 184 | 9.7 | 14.5 | 0.00 | 0.00 | 0.00 | 52 | 1021.7 |
| 20260503201503 | 15 | 190 | 6.4 | 12.9 | 0.00 | 0.00 | 0.00 | 52 | 1021.5 |
| 20260503201005 | 16 | 260 | 3.2 | 8.0 | 0.00 | 0.00 | 0.00 | 52 | 1021.4 |
| 20260503200503 | 16 | 314 | 3.2 | 4.8 | 0.00 | 0.00 | 0.00 | 52 | 1021.5 |
| 20260503200004 | 16 | 310 | 4.8 | 4.8 | 0.00 | 0.00 | 0.00 | 52 | 1021.6 |
| 20260503195504 | 16 | 240 | 6.4 | 8.0 | 0.00 | 0.00 | 0.00 | 53 | 1021.5 |
| 20260503195003 | 16 | 223 | 8.0 | 11.3 | 0.00 | 0.00 | 0.00 | 53 | 1021.8 |
| 20260503194504 | 16 | 233 | 9.7 | 11.3 | 0.00 | 0.00 | 0.00 | 54 | 1021.5 |
| 20260503194004 | 16 | 206 | 9.7 | 12.9 | 0.00 | 0.00 | 0.00 | 52 | 1021.4 |
| 20260503193503 | 16 | 177 | 8.0 | 12.9 | 0.00 | 0.00 | 0.00 | 52 | 1021.4 |
| 20260503193004 | 16 | 256 | 4.8 | 8.0 | 0.00 | 0.00 | 0.00 | 53 | 1021.4 |
| 20260503192503 | 16 | 328 | 6.4 | 8.0 | 0.00 | 0.00 | 0.00 | 53 | 1021.2 |
| 20260503192004 | 16 | 176 | 8.0 | 9.7 | 0.00 | 0.00 | 0.00 | 52 | 1021.3 |
| 20260503191503 | 16 | 147 | 8.0 | 12.9 | 0.00 | 0.00 | 0.00 | 51 | 1021.3 |
| 20260503191214 | 16 | 93 | 8.0 | 12.9 | 0.00 | 0.00 | 0.00 | 45 | 1021.5 |
| 20260503190504 | 16 | 89 | 8.0 | 9.7 | 0.00 | 0.00 | 0.00 | 51 | 1021.2 |
| 20260503190003 | 16 | 40 | 6.4 | 9.7 | 0.00 | 0.00 | 0.00 | 51 | 1021.3 |
| 20260503185504 | 16 | 22 | 6.4 | 8.0 | 0.00 | 0.00 | 0.00 | 53 | 1021.1 |
| 20260503185005 | 16 | 90 | 6.4 | 9.7 | 0.00 | 0.00 | 0.00 | 55 | 1021.3 |
| 20260503184504 | 16 | 104 | 4.8 | 9.7 | 0.00 | 0.00 | 0.00 | 56 | 1021.1 |
| 20260503184217 | 16 | 97 | 4.8 | 9.7 | 0.00 | 0.00 | 0.00 | 57 | 1021.2 |
| 20260503183503 | 16 | 72 | 8.0 | 11.3 | 0.00 | 0.00 | 0.00 | 61 | 1021.4 |
| 20260503183004 | 16 | 48 | 6.4 | 11.3 | 0.00 | 0.00 | 0.00 | 61 | 1020.9 |
| 20260503182505 | 16 | 72 | 9.7 | 12.9 | 0.00 | 0.00 | 0.00 | 62 | 1021.1 |
| 20260503182004 | 16 | 72 | 11.3 | 14.5 | 0.00 | 0.00 | 0.00 | 62 | 1021.0 |
| 20260503181505 | 16 | 56 | 9.7 | 14.5 | 0.00 | 0.00 | 0.00 | 58 | 1021.0 |
| 20260503181003 | 16 | 35 | 8.0 | 12.9 | 0.00 | 0.00 | 0.00 | 58 | 1021.0 |
| 20260503180503 | 16 | 51 | 8.0 | 12.9 | 0.00 | 0.00 | 0.00 | 58 | 1020.8 |
| 20260503180004 | 16 | 93 | 9.7 | 12.9 | 0.00 | 0.00 | 0.00 | 58 | 1021.0 |
| 20260503175714 | 16 | 82 | 9.7 | 14.5 | 0.00 | 0.00 | 0.00 | 58 | 1020.8 |
| 20260503175004 | 16 | 81 | 11.3 | 14.5 | 0.00 | 0.00 | 0.00 | 57 | 1020.9 |
| 20260503174504 | 16 | 85 | 9.7 | 12.9 | 0.00 | 0.00 | 0.00 | 56 | 1020.9 |
| 20260503174003 | 16 | 81 | 9.7 | 12.9 | 0.00 | 0.00 | 0.00 | 56 | 1020.8 |
| 20260503173504 | 16 | 62 | 8.0 | 11.3 | 0.00 | 0.00 | 0.00 | 55 | 1021.1 |
| 20260503173004 | 17 | 59 | 8.0 | 9.7 | 0.00 | 0.00 | 0.00 | 56 | 1021.0 |
| 20260503172504 | 17 | 72 | 9.7 | 12.9 | 0.00 | 0.00 | 0.00 | 55 | 1020.9 |
| 20260503172003 | 17 | 61 | 9.7 | 12.9 | 0.00 | 0.00 | 0.00 | 55 | 1021.0 |
| 20260503171503 | 17 | 70 | 11.3 | 12.9 | 0.00 | 0.00 | 0.00 | 53 | 1020.9 |
| 20260503171003 | 17 | 106 | 8.0 | 12.9 | 0.00 | 0.00 | 0.00 | 53 | 1021.2 |
| 20260503170503 | 17 | 103 | 8.0 | 12.9 | 0.00 | 0.00 | 0.00 | 54 | 1020.8 |